Hourly Weather Roundup
Issued by NWS Central Illinois

Home | Current Version | Previous Version | Text Only | Print | Product List | Glossary On
Versions: 1 2 3 4 5 6 7 8 9 10 11 12 13 14 15 16 17 18 19 20 21 22 23 24 25 26 27 28 29 30 31 32 33 34 35 36 37 38 39 40 41 42 43 44 45 46 47 48 49 50
000
NZUS43 KILX 290710
HWRILX

AREA WEATHER ROUNDUP
NATIONAL WEATHER SERVICE, LINCOLN IL
200 AM CDT SUN MAR 29 2015


CITY           SKY/WX    TMP DP  RH WIND       PRES   REMARKS
BLOOMINGTON    CLEAR     28  20  72 S13       30.25F WCI  17
CHAMPAIGN      CLEAR     27  18  69 SE8       30.28F WCI  19
DECATUR        CLEAR     30  20  66 S9        30.27F WCI  22
EFFINGHAM      CLEAR     29  18  62 SE6       30.31F WCI  23
FLORA          CLEAR     28  23  81 SE5       30.31F WCI  23
GALESBURG      CLEAR     30  22  69 S9        30.18F WCI  22
JACKSONVILLE   CLEAR     35  22  59 SE12      30.22F WCI  26
LACON          CLEAR     30  17  57 S10       30.21F WCI  21
LAWRENCEVILLE  CLEAR     28  24  85 SE3       30.34S
LITCHFIELD     CLEAR     31  20  62 SE9       30.26F WCI  23
$$


CITY           SKY/WX    TMP DP  RH WIND       PRES   REMARKS
LINCOLN        CLEAR     30  23  74 S6        30.27S WCI  24
MACOMB         CLEAR     30  23  75 SE9       30.20F WCI  21
MATTOON        CLEAR     29  18  63 S6        30.28F WCI  23
MT CARMEL AP   CLEAR     30  27  86 CALM      30.34S
OLNEY-NOBLE AP CLEAR     27  21  80 SE3       30.32F
PARIS          CLEAR     28  23  81 SE5       30.31F WCI  23
PEORIA         CLEAR     34  18  52 S13       30.22F WCI  25
PONTIAC        CLEAR     27  21  76 SE8       30.25F WCI  19
RANTOUL        CLEAR     28  20  73 S5        30.28F WCI  23
ROBINSON       CLEAR     23  19  84 CALM      30.34F
SPRINGFIELD    CLEAR     34  20  56 S15       30.25F WCI  24
TAYLORVILLE    CLEAR     32  21  64 SE9       30.26F WCI  24
$$

...REGIONAL REPORTS...


CITY           SKY/WX    TMP DP  RH WIND       PRES   REMARKS
CHICAGO O`HARE PTCLDY    25  14  63 S7        30.23F WCI  17
KANKAKEE       CLEAR     27  16  63 S6        30.28F WCI  20
MOLINE         PTCLDY    31  18  58 S13       30.15F WCI  21
MOUNT VERNON   CLEAR     30  16  55 SE5       30.31F WCI  25
PITTSFIELD     CLEAR     34  23  65 SE12      30.21F WCI  25
QUINCY         PTCLDY    33  19  56 S13       30.16F WCI  24
ROCKFORD       PTCLDY    29  17  61 S13       30.20F WCI  19
$$


CITY           SKY/WX    TMP DP  RH WIND       PRES   REMARKS
BURLINGTON     CLEAR     33  20  58 S13G22    30.14F WCI  24
CEDAR RAPIDS   PTCLDY    31  19  61 S15       30.07F WCI  20
DES MOINES     PTCLDY    38  24  57 S17       30.00F WCI  28
KIRKSVILLE     CLEAR     33  25  72 S13       30.11F WCI  24
OTTUMWA        CLEAR     34  19  54 S18       30.07F WCI  23
ST LOUIS       CLEAR     37  16  42 S13       30.26F WCI  29
$$


CITY           SKY/WX    TMP DP  RH WIND       PRES   REMARKS
TERRE HAUTE    CLEAR     28  17  63 SE8       30.32F WCI  20
EVANSVILLE     CLEAR     30  21  69 CALM      30.35F
INDIANAPOLIS   CLEAR     25  13  60 SE6       30.31F WCI  18
LAFAYETTE      CLEAR     27  17  66 S6        30.31F WCI  20
MADISON        PTCLDY    32  14  47 S9        30.13F WCI  24
MILWAUKEE      CLEAR     27  10  49 S12       30.19F WCI  17
$$





USA.gov is the U.S. government's official web portal to all federal, state and local government web resources and services.